User: anonymous
Location: Unspecified
(0.0000°N, 0.0000°E)
Time: 04:20:27
(UTC+00:00)
Language:

N. Korean satellite - Orbit

View from above orbital plane
View from above orbital plane
View from above satellite
View from above satellite

Ground track
Ground track

The orbit data is extracted from the following two-line orbital elements,

1 39026U 12072A   14232.40075742  .00003837  00000-0  20361-3 0  1272
2 39026 097.3234 269.6645 0051957 203.5625 156.3228 15.14757838 93095
Epoch (UTC): 20 August 2014 09:37:05
Eccentricity: 0.0051957
inclination: 97.3234°
perigee height: 486 km
apogee height: 557 km
right ascension of ascending node: 269.6645°
argument of perigee: 203.5625°
revolutions per day: 15.14757838
mean anomaly at epoch: 156.3228°
orbit number at epoch: 9309

The dashed part of the orbit path shows where the satellite is in the earth's shadow,  

DLR